Theta_e
335 334 334 334 335 336 338 340 341 343 344 344 344 343 340 338 332 330 330 334 335 336 343 341 342 348 349 349 351 351 351 352 353 352 353 353 353 348 343 342 339 338 338 338 337 337 337 337 337 339 341 342 343 345 348 350 351 352 352 352 353 353 352 353 352 352 351 352 353 353 353 356 357 358
335 335 334 334 334 336 337 338 340 341 343 343 344 344 345 342 332 332 331 331 333 333 336 342 341 341 346 349 350 351 351 351 353 353 353 354 354 345 341 340 339 338 337 336 335 337 336 336 336 337 338 339 340 342 343 345 346 346 348 350 350 351 351 351 350 350 350 350 350 349 349 350 350 351
335 334 333 334 333 335 336 337 337 339 341 342 344 344 345 345 339 332 334 331 332 338 336 339 343 342 344 347 348 350 351 352 353 353 354 354 351 347 346 340 338 336 336 336 336 337 337 338 337 336 336 338 338 338 340 342 343 344 346 348 349 349 350 350 350 349 349 349 348 348 345 344 345 347
335 334 333 333 334 335 335 335 335 335 337 340 341 343 344 344 343 340 333 329 333 336 338 338 340 343 346 348 349 349 350 353 352 353 353 354 349 350 349 342 338 337 337 337 337 338 339 338 337 336 336 336 337 338 339 340 342 343 344 345 347 347 348 349 348 347 347 347 346 343 342 343 345 346
336 335 333 334 335 336 334 334 334 334 335 338 340 342 343 343 339 335 333 330 332 339 338 338 339 341 345 344 347 347 347 348 348 347 350 351 351 351 350 350 344 340 338 338 338 337 337 337 338 337 336 336 336 337 337 339 339 340 341 343 345 344 344 345 345 345 344 344 343 342 342 343 343 345
337 336 335 335 335 336 335 334 333 334 335 336 337 339 341 340 339 339 334 333 334 334 338 338 339 339 345 344 343 347 345 345 346 346 347 349 351 352 352 350 351 341 338 339 337 337 337 336 336 336 335 335 335 335 335 335 335 337 337 339 340 340 339 339 340 342 342 342 341 340 342 343 343 344
339 339 337 336 336 337 335 334 334 335 335 336 336 336 339 339 338 338 337 335 333 334 337 340 337 339 340 343 343 344 346 346 345 344 345 347 350 352 353 352 352 343 338 338 336 336 336 335 335 334 335 334 333 333 333 333 333 334 334 334 335 336 336 335 336 338 339 340 340 340 341 342 342 344
338 339 338 339 338 337 335 335 335 335 335 335 335 335 337 338 339 339 340 339 336 335 334 338 339 335 336 340 342 343 343 344 344 345 346 347 349 351 352 352 351 346 339 336 335 335 334 334 334 333 333 332 330 330 331 330 329 328 329 330 332 333 335 332 333 335 335 335 334 337 341 342 341 342
338 338 338 339 339 338 335 335 335 335 334 335 335 335 336 336 336 337 339 337 336 334 333 334 337 336 336 337 340 341 341 340 341 342 344 345 346 346 347 348 348 342 336 334 333 333 332 332 333 333 332 330 328 328 329 328 326 325 326 325 328 327 328 328 329 330 329 328 328 332 337 340 340 341
337 337 337 338 337 336 335 335 336 336 335 335 335 334 335 335 335 335 335 336 335 335 335 334 335 336 335 333 335 337 341 340 338 338 339 339 342 342 343 345 347 346 342 341 338 334 332 331 331 332 331 330 328 327 326 325 324 322 320 318 321 325 326 326 327 327 327 326 326 328 332 337 339 340
337 338 338 338 338 337 335 335 335 336 335 335 334 335 334 334 334 333 334 335 335 335 334 335 336 336 336 334 334 335 335 337 338 336 333 334 336 339 341 342 343 344 342 340 338 339 338 335 334 329 328 329 328 325 324 322 320 320 319 318 318 320 321 321 322 323 324 324 325 326 327 329 335 338
338 338 339 340 340 340 339 337 337 337 335 335 335 335 335 334 333 333 333 333 333 333 334 334 334 333 334 332 334 334 333 332 332 335 334 333 333 337 339 341 342 340 342 341 342 338 335 332 329 326 326 327 326 324 323 323 323 322 319 318 320 322 320 320 321 322 321 321 322 322 323 325 327 330
338 339 339 340 340 343 343 334 334 333 332 336 334 335 335 335 334 333 333 332 332 332 332 332 333 332 331 332 332 332 331 332 333 333 336 336 337 337 335 338 341 343 344 342 341 339 339 336 334 333 334 332 331 327 329 330 330 323 318 319 323 324 322 320 320 321 321 320 319 318 320 322 324 325
338 339 339 341 342 342 337 335 331 329 328 329 335 336 335 336 334 333 332 332 332 332 331 331 331 330 330 332 332 333 334 335 334 333 336 336 336 334 335 335 338 343 345 342 340 340 341 339 337 336 336 336 336 333 333 334 333 326 322 323 324 324 323 320 319 319 319 318 316 316 316 319 321 321
337 338 339 339 341 341 340 337 331 329 327 328 328 329 329 331 336 334 333 333 333 333 332 332 331 331 330 331 333 334 335 335 335 335 334 336 335 337 334 333 332 342 345 342 341 339 343 342 339 338 338 338 337 336 335 331 329 324 323 324 324 323 322 320 319 318 317 315 314 314 314 317 319 320
337 338 338 337 338 339 339 338 334 331 327 328 328 327 327 328 330 332 336 335 334 334 333 332 332 332 331 332 333 334 334 334 334 335 334 334 334 335 335 331 332 336 345 341 337 337 342 345 341 338 339 339 339 339 333 328 326 324 323 323 323 322 322 321 321 320 319 318 317 317 318 319 320 320
337 336 334 335 336 336 330 341 335 334 333 328 327 327 327 328 329 330 331 334 340 338 336 335 333 333 334 332 334 336 336 337 333 334 334 334 333 335 335 336 334 337 344 340 336 335 337 343 340 338 339 340 339 338 329 327 326 324 323 322 323 322 322 322 322 322 321 320 318 318 318 319 320 320
337 335 333 333 333 333 335 335 334 333 333 333 331 332 332 334 332 327 327 328 330 336 338 337 335 336 337 335 335 339 338 338 337 336 336 336 334 336 338 337 333 334 344 341 337 331 334 340 340 338 336 339 338 338 332 326 326 323 322 322 322 322 321 321 321 321 321 320 318 317 316 315 315 316
334 334 334 333 333 333 333 334 334 333 332 333 333 333 334 335 336 335 336 336 336 337 340 338 337 336 337 338 337 338 341 342 343 341 338 338 338 337 337 336 336 338 344 341 336 333 331 337 336 338 337 338 337 336 332 325 325 324 322 322 321 320 321 321 321 320 320 320 318 316 316 314 313 313
334 334 334 334 334 334 334 330 328 332 336 334 333 333 335 336 337 338 333 331 334 339 341 340 338 339 339 333 340 343 343 342 343 341 341 339 338 338 334 334 337 339 342 341 338 331 331 337 338 336 335 336 334 332 334 326 325 324 322 322 320 319 319 320 320 320 320 320 318 316 313 310 310 309
335 336 335 333 332 331 331 327 324 328 329 335 334 334 335 337 337 336 337 330 330 331 329 329 330 329 326 326 326 325 330 340 337 337 335 335 337 333 330 331 334 338 340 341 342 335 331 338 340 331 332 336 333 331 332 328 325 324 322 320 319 317 317 319 320 320 320 320 319 318 316 310 309 310
333 335 335 335 332 331 328 322 321 324 332 335 335 335 335 334 334 334 337 338 335 325 326 327 327 326 326 328 326 326 324 324 333 339 337 341 339 334 333 331 333 331 338 342 344 336 332 333 337 331 330 330 330 332 332 329 325 321 319 318 317 315 315 316 316 319 319 320 319 317 314 310 310 316
324 322 321 324 320 319 315 313 318 324 333 335 335 335 334 333 333 332 336 337 337 336 336 335 334 333 329 332 335 336 324 327 333 340 342 339 341 337 335 333 330 331 335 342 345 337 330 336 337 335 332 330 331 332 334 330 327 326 326 323 321 315 314 314 313 313 315 317 316 316 311 309 313 322
321 321 319 317 311 310 310 309 309 310 318 331 334 335 333 328 322 321 329 335 337 336 337 336 337 336 336 335 335 335 334 330 335 336 339 339 335 335 338 337 334 327 328 337 345 340 333 335 334 335 333 329 328 331 333 332 329 328 328 326 325 317 315 314 313 311 311 312 313 313 310 308 315 326
319 319 318 317 313 308 307 306 306 307 311 316 321 320 320 321 322 322 328 330 334 332 333 332 333 335 334 334 335 333 334 335 335 334 334 340 341 341 340 338 337 333 334 341 340 339 331 331 334 336 331 325 326 332 333 333 332 330 331 330 328 324 321 320 320 318 311 308 308 308 307 309 312 325
319 318 318 316 311 308 307 306 305 305 309 313 319 313 307 311 318 327 328 331 331 330 329 330 330 329 328 328 330 331 331 335 338 338 337 337 340 343 345 341 334 330 330 338 333 339 334 328 332 335 330 328 330 332 332 333 333 332 332 333 332 329 324 323 323 322 320 318 316 311 312 308 312 315
319 319 317 316 312 306 303 304 305 307 310 310 308 304 309 313 320 325 327 328 328 327 328 327 327 327 326 329 332 333 333 335 333 333 335 340 342 343 345 342 341 338 338 340 340 336 334 331 333 334 330 330 327 329 329 332 333 334 331 332 332 331 327 326 324 325 323 321 322 310 308 307 309 311
322 319 316 311 305 302 302 304 306 306 309 312 302 304 312 319 323 328 327 323 326 327 324 325 325 325 326 329 329 330 332 334 334 333 336 335 339 341 337 338 342 338 336 340 339 341 338 335 334 333 334 331 329 330 329 329 334 332 331 333 333 332 329 329 327 328 327 325 323 318 317 315 314 314
319 310 303 302 304 306 306 309 314 314 311 308 308 308 314 325 325 327 326 326 327 325 323 323 323 323 326 329 330 330 331 335 334 334 335 337 336 338 339 337 338 338 339 340 341 340 341 341 337 333 330 329 327 328 327 328 335 333 334 332 331 333 330 330 330 329 327 326 325 320 319 322 319 318
309 306 307 309 311 312 315 321 324 324 320 314 315 317 322 320 321 324 325 323 324 323 323 323 322 322 324 325 326 331 332 329 330 332 332 331 332 334 334 332 332 336 342 341 339 339 338 339 338 334 332 331 329 330 331 330 333 336 334 334 335 335 334 332 331 331 330 327 327 326 325 325 325 321
317 316 317 316 314 315 313 317 318 318 321 321 318 319 320 321 323 324 324 322 323 323 322 322 322 322 323 326 327 326 326 327 328 331 332 330 329 330 330 329 327 329 331 334 335 340 340 342 341 339 333 330 332 332 334 333 330 333 332 335 336 332 332 333 333 332 332 331 330 330 328 326 327 326
321 319 315 316 322 322 320 319 319 319 320 322 321 320 321 321 323 326 329 329 325 323 322 321 322 322 323 323 324 324 323 323 326 330 330 329 326 327 326 322 322 321 323 325 327 330 340 336 338 338 339 335 333 333 331 332 332 332 334 335 335 336 335 333 333 334 334 333 330 329 329 328 327 328
321 319 319 319 319 318 319 320 320 320 321 322 322 323 322 321 322 321 323 322 322 321 321 320 321 321 321 322 323 321 321 322 323 324 325 327 324 324 323 321 320 320 321 323 324 325 326 329 338 337 336 336 336 331 330 329 329 330 331 332 332 334 335 337 335 335 335 332 330 331 330 330 330 330
319 319 319 319 318 319 319 319 320 321 321 321 322 323 321 322 323 322 322 322 322 322 322 322 322 322 321 320 322 319 318 319 320 321 321 322 324 323 321 320 319 321 322 321 321 322 322 323 329 331 331 334 335 335 334 332 327 326 327 329 328 330 331 336 336 336 335 334 332 330 330 330 332 332
320 319 319 320 320 321 322 321 321 321 320 320 320 322 323 323 323 322 322 322 322 320 321 321 322 321 320 319 322 320 321 320 318 319 322 322 321 319 319 318 319 321 320 319 319 319 318 321 323 324 322 322 323 327 331 333 328 327 327 329 329 329 329 333 332 332 333 333 333 330 330 331 331 333
318 319 319 319 321 321 321 322 323 323 322 321 321 321 321 322 323 323 323 322 323 321 321 321 321 321 320 319 320 319 318 319 319 319 319 318 318 318 319 320 320 319 319 317 317 317 317 319 319 318 317 316 316 317 324 330 332 329 329 327 327 329 331 331 331 333 333 333 333 332 330 330 331 332
316 317 318 319 320 320 319 320 321 322 322 322 322 321 321 321 321 322 322 320 324 323 322 322 321 320 319 318 318 317 316 316 317 317 318 317 317 318 317 319 321 318 315 317 316 316 316 318 317 317 315 313 313 313 316 322 322 322 333 329 326 326 327 327 328 329 330 333 332 332 331 329 328 326
315 315 316 317 317 318 318 318 319 319 319 321 322 321 321 321 322 323 322 321 321 322 321 320 320 319 319 317 317 317 316 316 316 316 315 316 316 316 316 315 316 315 314 314 314 315 314 317 315 315 312 309 307 308 310 314 318 325 321 328 325 322 324 324 325 327 328 329 332 331 330 329 330 328
312 313 314 314 314 315 315 315 316 318 319 319 319 319 319 320 320 320 320 321 321 321 320 319 319 318 318 317 316 315 315 314 314 314 314 314 314 314 314 314 314 313 311 311 311 312 312 314 315 313 312 309 309 310 312 313 313 319 319 314 324 322 322 320 320 323 325 326 328 330 331 333 330 327
314 315 314 315 315 315 314 315 316 318 318 320 320 320 319 317 319 320 320 319 319 319 319 318 318 316 317 317 317 317 317 317 316 314 314 313 314 315 314 314 314 311 310 311 312 311 310 314 317 315 313 315 315 315 316 317 316 316 318 317 313 323 325 322 320 319 318 320 320 322 324 324 326 323
313 313 314 315 316 316 315 315 316 317 316 317 318 315 315 316 318 319 321 322 322 319 319 318 318 318 318 318 317 317 315 314 313 313 314 313 313 314 315 315 311 310 310 309 309 309 311 314 321 323 328 318 317 314 311 309 309 312 313 317 312 310 314 319 324 321 319 319 321 320 320 320 318 319
313 313 314 315 316 318 317 317 317 315 315 316 319 321 321 319 318 317 318 320 319 319 318 318 317 317 317 317 317 315 315 314 313 314 314 313 312 311 314 312 311 310 310 310 311 310 312 313 321 316 316 315 314 309 307 307 308 310 312 314 315 312 307 308 313 319 323 323 320 319 318 316 319 319
315 314 314 316 317 317 316 317 317 316 316 315 317 317 316 316 316 316 316 316 316 317 316 316 316 317 315 316 316 317 316 315 315 315 314 313 313 312 312 312 312 313 312 312 312 312 313 314 313 314 312 313 312 311 310 310 309 309 309 310 312 313 314 311 309 309 311 316 318 320 321 315 311 310
315 315 314 315 316 316 316 316 316 316 316 316 315 313 314 313 313 314 314 317 317 316 315 315 315 315 315 316 317 316 316 316 316 315 314 313 313 314 314 313 312 313 312 312 311 312 312 312 312 313 313 311 310 309 309 309 310 310 310 310 311 310 311 313 314 311 311 312 311 311 313 315 316 314
315 314 311 310 310 310 309 308 307 306 307 309 311 311 312 312 313 314 314 315 315 316 316 316 316 315 316 315 315 316 316 313 314 315 315 314 313 312 313 314 312 312 312 312 311 311 310 311 311 311 310 311 310 311 312 311 310 310 310 309 310 310 310 311 310 311 310 311 310 309 310 310 310 310
Wind_Speed
12 11 13 12 12 12 11 10 10 9 8 9 9 9 11 11 11 9 8 9 9 5 8 7 5 9 8 8 8 9 8 10 12 8 8 8 7 10 14 15 14 14 15 13 12 11 13 14 15 16 16 16 16 16 16 16 17 17 17 17 17 16 16 16 15 15 14 14 13 13 12 11 10 9
11 12 11 11 11 11 9 10 10 9 10 10 10 10 10 9 10 11 10 10 6 4 3 7 6 3 8 8 8 7 9 11 12 7 7 7 7 11 14 14 13 13 13 13 13 14 15 15 15 16 17 17 16 16 16 16 17 17 17 17 17 17 16 16 16 15 15 14 13 13 12 11 10 8
11 12 13 12 11 11 11 10 10 9 9 10 10 11 10 9 11 11 9 10 4 5 7 6 5 5 6 6 7 6 7 9 9 7 7 7 10 12 9 11 11 11 11 12 13 14 14 14 14 15 18 18 17 16 16 16 16 17 17 18 17 17 16 16 16 15 14 14 13 12 7 6 8 9
11 12 13 13 12 12 10 11 11 12 12 11 11 11 10 10 9 9 4 4 11 3 5 5 5 6 5 4 5 6 6 6 9 6 7 7 9 7 6 10 12 13 14 15 15 14 14 14 14 16 17 17 16 16 16 16 17 17 17 17 17 16 17 16 16 15 14 14 13 10 10 13 12 11
12 12 13 13 14 12 12 11 11 12 13 13 12 11 10 10 4 6 5 8 12 8 4 5 5 4 3 3 5 6 6 6 6 6 6 7 6 7 7 8 11 13 12 13 13 14 14 15 16 16 17 16 15 15 14 13 14 15 16 16 16 16 16 16 16 14 14 14 14 13 12 12 12 11
11 11 12 13 13 12 13 12 13 13 13 13 12 12 11 9 8 8 8 11 9 13 5 6 3 3 5 6 3 6 7 7 6 6 7 6 6 7 6 6 7 12 13 13 13 14 15 15 16 17 16 14 14 14 14 14 14 15 15 16 16 16 16 15 14 14 15 15 15 15 13 14 13 11
13 12 12 13 13 11 12 14 14 14 15 13 13 13 10 10 8 9 11 9 10 11 11 5 4 5 4 6 6 5 6 6 5 6 7 7 6 6 7 6 5 8 11 11 12 14 14 15 15 14 14 13 12 13 14 14 13 14 14 14 14 14 14 14 14 15 16 15 14 15 16 15 14 12
11 13 13 14 14 13 14 14 13 13 13 13 13 12 10 10 11 8 7 7 5 4 7 9 7 3 4 5 4 4 4 5 5 6 7 5 6 6 6 6 6 6 9 10 10 9 8 9 11 11 12 12 13 13 13 12 12 12 13 14 13 13 13 13 15 16 16 15 14 12 14 14 13 12
12 14 16 16 14 12 13 13 13 13 15 14 13 12 11 9 6 6 7 8 8 8 10 10 8 4 4 4 4 4 4 5 5 5 6 6 5 5 5 4 5 5 7 6 6 4 5 6 7 9 10 11 11 10 10 10 11 12 13 13 12 12 14 16 16 16 15 14 13 15 14 14 13 13
12 13 15 15 14 15 16 16 14 14 16 15 13 13 10 8 7 7 6 8 9 10 12 11 11 5 6 3 4 4 5 6 7 6 6 5 5 5 6 5 4 3 3 2 2 3 4 5 8 9 9 10 10 10 10 11 12 12 12 13 13 15 16 17 16 14 15 15 16 15 13 11 11 11
14 15 15 16 17 17 18 17 16 16 16 14 14 14 13 11 10 8 8 9 10 10 11 10 9 9 6 5 8 5 4 5 6 6 4 5 5 5 6 6 3 2 2 2 5 4 5 5 4 7 10 10 11 11 11 11 12 12 13 14 14 14 15 15 15 15 15 13 13 13 14 13 11 11
14 16 16 17 17 17 18 18 17 17 16 13 14 12 11 10 10 11 10 8 8 9 8 9 9 8 8 4 6 3 2 5 5 6 6 8 6 6 5 6 6 2 4 3 3 3 4 3 2 0 3 7 9 9 8 9 10 12 12 12 12 13 14 14 14 14 14 14 15 13 13 12 12 11
15 15 15 16 16 18 20 23 21 19 16 13 13 12 11 12 11 10 8 9 9 8 8 9 8 7 7 8 6 6 6 8 9 4 6 7 7 6 4 5 6 5 5 4 4 4 5 4 3 4 5 5 4 3 7 7 11 11 11 12 12 13 14 14 15 15 15 15 14 14 14 14 13 12
14 15 14 15 23 23 23 23 25 23 22 21 17 14 13 13 12 11 10 9 9 9 9 10 9 9 9 9 8 8 8 7 5 4 5 6 5 2 5 4 5 5 6 6 6 4 4 4 3 3 4 3 3 4 5 6 6 8 12 13 14 14 14 13 15 16 15 13 13 14 12 11 11 10
13 13 14 13 18 20 19 17 21 20 21 22 21 19 19 17 15 13 12 11 11 10 10 10 8 9 10 9 8 9 8 6 8 7 6 7 3 4 5 6 2 4 7 6 4 4 5 5 5 4 5 4 4 3 5 7 8 9 10 10 9 10 10 11 10 10 9 9 10 12 12 12 12 11
12 13 13 11 11 13 14 12 14 18 20 21 19 19 20 19 20 19 16 13 11 11 11 9 10 9 10 10 7 8 6 8 7 6 6 6 6 5 6 5 6 4 8 6 5 5 4 5 5 4 5 4 4 5 6 8 9 10 10 9 9 10 10 11 11 11 11 13 12 11 11 11 12 11
9 10 9 10 9 9 18 15 10 10 12 16 20 20 20 20 20 19 18 16 14 12 11 10 10 11 10 9 9 9 7 4 6 5 6 5 5 7 7 7 5 2 6 6 5 5 3 5 4 5 4 4 3 4 7 9 8 8 9 8 8 9 9 10 9 10 11 11 11 11 11 12 12 12
9 9 10 9 9 9 11 9 10 8 8 8 7 8 9 9 13 13 13 14 14 12 12 12 13 12 9 9 8 6 4 5 7 6 8 5 6 7 8 3 3 2 5 7 5 2 3 4 5 5 3 3 2 3 6 10 9 8 9 10 11 10 10 10 10 11 11 11 11 11 11 12 12 12
6 9 9 10 10 10 9 8 9 8 8 8 9 10 10 10 9 10 10 10 9 11 11 12 12 8 8 8 4 3 6 8 6 5 5 6 6 4 0 2 3 6 5 4 4 3 1 3 4 5 4 3 3 3 5 11 10 10 8 8 9 9 10 10 11 11 12 12 12 12 12 12 12 11
5 6 7 7 7 7 7 9 13 11 9 9 10 11 11 11 10 10 12 13 14 14 12 10 9 7 6 7 6 4 5 4 2 4 4 2 3 6 4 3 1 2 3 4 5 2 2 2 5 4 1 3 4 1 1 6 9 9 8 7 7 7 7 8 9 10 11 12 12 13 13 12 11 11
3 4 6 7 7 7 7 11 14 13 14 10 11 12 11 11 10 8 6 10 15 15 14 12 9 6 7 6 3 2 1 3 4 2 4 7 4 5 2 2 1 3 3 4 5 3 0 4 6 2 2 4 4 3 2 1 4 6 7 6 6 7 7 8 9 10 11 12 13 13 13 13 12 12
4 6 13 11 8 7 4 11 15 15 10 7 7 7 8 9 7 6 6 5 5 4 4 4 4 5 6 7 6 5 5 7 5 5 6 3 5 4 4 5 4 1 2 4 6 4 3 1 2 2 0 2 0 2 2 3 3 4 4 5 6 7 7 8 9 9 10 12 12 13 13 12 10 7
7 10 12 15 12 9 10 12 9 9 7 6 6 6 7 6 6 3 5 6 6 4 3 2 2 1 4 4 4 4 6 7 6 4 3 3 1 2 5 3 3 1 3 4 7 6 3 7 5 5 3 1 1 0 3 3 3 3 4 4 4 5 6 7 8 8 9 10 10 11 11 11 9 5
10 11 10 12 17 18 18 18 17 16 12 5 3 3 5 6 5 1 1 3 5 4 4 3 3 3 3 3 2 2 3 3 4 4 4 4 4 4 4 4 3 3 3 1 8 7 2 3 4 3 5 4 2 2 3 3 3 4 4 5 4 4 5 4 3 5 7 7 8 9 10 11 9 5
9 10 10 9 14 17 16 15 16 16 15 12 8 7 5 3 0 1 5 5 4 4 3 2 3 3 2 2 3 3 3 4 4 4 3 5 6 6 5 5 5 2 2 2 9 3 3 2 4 4 1 2 2 3 2 2 2 3 4 4 4 3 3 3 2 3 4 6 7 9 10 11 11 7
9 9 8 7 11 15 15 14 14 15 14 14 9 7 6 6 7 6 5 1 1 6 5 4 4 4 5 4 2 1 1 1 2 3 4 5 6 7 6 5 4 2 2 2 7 2 5 1 3 3 1 2 0 2 3 2 3 4 3 3 3 4 5 4 3 3 4 4 4 4 7 10 10 9
7 6 6 7 12 14 14 14 14 14 14 11 8 9 11 12 11 8 5 4 6 5 5 5 5 4 4 5 4 3 2 1 2 2 1 2 6 6 3 3 4 4 4 0 1 5 5 3 1 3 3 3 3 2 1 3 3 4 4 4 4 4 5 4 6 5 4 5 3 5 5 5 7 7
5 5 5 6 11 12 12 12 12 11 9 7 10 11 10 10 7 4 3 4 4 3 5 5 5 4 2 3 2 1 1 2 1 0 1 2 2 3 4 2 4 3 1 3 9 5 7 6 6 5 0 1 4 5 4 2 1 6 6 4 4 5 5 5 5 5 4 4 4 5 4 4 4 4
5 5 6 9 9 9 9 9 8 7 8 9 8 9 9 7 6 5 4 2 1 3 4 4 4 3 2 2 1 1 1 1 2 1 1 1 2 3 2 2 3 4 2 4 5 5 5 6 5 3 2 0 5 3 3 4 6 6 5 6 4 6 7 6 6 6 5 5 6 7 7 6 5 6
9 8 7 7 7 7 5 5 5 5 4 5 5 6 8 4 3 3 5 4 2 4 3 3 4 2 1 2 2 1 2 5 4 2 2 3 4 4 1 1 2 1 3 3 4 2 2 4 6 7 8 8 9 6 5 2 1 1 4 7 5 2 6 6 7 6 6 7 6 6 6 6 6 7
4 3 2 3 3 4 4 4 3 2 2 2 2 2 1 0 2 2 1 2 2 3 3 3 3 2 3 1 2 4 5 4 3 2 3 2 2 4 4 2 0 2 1 1 1 1 2 5 6 7 5 2 3 6 6 4 5 6 6 5 5 6 5 7 6 6 6 6 6 5 5 5 5 6
2 2 2 2 1 2 2 2 2 1 0 1 1 2 2 2 2 2 3 2 1 1 3 2 2 2 3 3 3 3 4 3 3 3 4 2 4 3 3 3 1 3 5 5 4 3 1 0 1 3 5 5 5 5 2 4 5 6 6 7 6 4 3 7 7 6 6 6 5 6 6 6 6 5
2 2 2 3 3 3 3 2 1 1 1 2 2 3 2 2 3 2 2 2 1 0 1 2 1 3 4 4 4 3 3 3 3 2 4 2 4 4 4 4 3 3 5 5 4 6 6 6 3 1 2 3 3 2 2 1 3 1 1 2 4 4 4 5 6 6 5 5 6 5 5 5 5 5
1 1 2 3 3 3 3 3 3 3 2 2 3 3 3 3 3 2 2 3 2 0 0 0 1 0 2 3 3 3 3 3 2 2 3 2 3 3 2 4 4 3 3 3 3 4 5 6 4 4 3 1 1 2 2 2 1 2 3 4 4 6 3 3 3 4 7 6 6 5 4 4 5 6
0 1 2 4 2 3 3 3 5 4 4 4 3 4 3 4 4 3 3 4 2 2 1 1 1 1 1 1 1 0 0 0 2 2 2 3 4 5 3 4 4 4 4 3 3 2 3 5 5 4 3 4 3 3 2 1 3 2 3 2 3 5 4 5 4 4 5 4 4 5 5 4 5 6
3 2 3 3 4 3 3 5 5 5 5 5 5 4 2 4 4 4 5 4 4 3 3 3 3 3 3 3 3 3 2 1 1 1 1 2 3 4 4 3 2 2 2 3 3 1 2 4 4 5 5 4 3 3 4 3 3 5 4 1 3 4 3 4 4 4 5 5 5 5 5 6 7 4
3 2 2 4 3 3 5 5 5 6 6 6 5 5 5 4 5 6 5 4 5 4 4 3 3 3 4 4 3 3 3 3 2 1 1 2 2 2 1 1 2 3 2 0 1 2 2 3 3 6 5 5 5 2 2 3 7 6 2 3 1 1 2 2 3 4 4 5 5 5 6 5 5 2
2 3 4 4 4 4 4 4 5 6 5 4 4 3 4 5 5 5 4 5 5 4 4 4 4 3 3 2 2 2 2 2 2 2 2 1 1 0 0 1 2 3 2 0 0 2 2 4 3 3 5 4 3 2 3 5 3 2 4 2 3 2 2 3 2 2 0 1 4 4 2 4 7 5
2 3 3 5 6 5 6 6 5 6 3 1 3 5 5 5 4 3 5 6 6 5 5 5 4 4 4 4 3 3 3 3 3 3 2 2 2 1 1 2 2 1 2 2 3 3 2 4 3 3 4 3 2 0 1 1 2 4 3 5 3 2 1 3 2 1 2 2 3 1 3 4 4 4
2 2 3 4 6 5 5 4 5 6 2 1 1 1 2 2 2 3 4 4 5 5 6 6 5 5 5 5 5 4 3 3 3 3 3 3 3 3 3 3 4 4 1 2 0 1 1 1 3 2 1 0 2 3 3 2 2 3 4 2 3 4 5 4 3 3 2 3 2 1 3 1 3 2
3 4 4 3 5 5 5 4 5 5 2 1 1 3 2 1 2 3 4 5 5 5 5 5 5 5 5 5 5 5 4 3 3 3 2 2 3 3 5 5 4 3 4 3 2 1 2 2 2 4 2 0 1 1 2 2 3 6 6 6 6 5 5 4 5 4 2 2 3 3 2 2 2 3
7 8 7 6 5 6 4 4 4 4 3 2 2 4 4 4 3 2 2 3 3 3 3 3 2 2 3 4 4 3 4 4 3 3 4 5 3 3 4 4 4 3 3 4 5 5 4 2 2 3 2 2 3 2 1 1 1 3 4 3 5 4 5 9 7 5 2 4 3 1 0 2 1 2
6 6 6 7 7 7 5 4 3 1 1 1 2 2 3 4 4 3 2 2 2 3 3 3 3 3 3 3 3 4 4 4 4 4 4 4 5 5 5 6 5 6 6 5 5 3 1 1 3 3 2 2 1 2 1 1 1 1 2 4 5 5 3 3 7 9 8 7 7 6 4 4 3 2
8 8 7 7 7 8 9 10 11 10 10 8 6 5 5 3 2 2 1 3 3 3 3 3 2 2 2 2 2 2 4 3 4 4 5 4 4 5 6 5 5 5 5 4 3 2 1 0 1 1 0 1 2 2 3 1 0 0 1 1 1 3 5 6 3 1 2 5 9 11 11 9 8 7
8 9 10 10 11 11 11 11 11 11 11 11 11 11 10 10 10 9 9 7 4 1 2 2 2 1 1 1 2 2 3 3 3 3 3 3 4 4 4 4 4 4 4 4 4 2 1 1 1 1 1 2 2 3 3 3 1 1 1 1 3 2 3 2 4 5 5 7 6 7 7 8 9 10
Wind_Direction
198 203 204 209 219 221 223 227 227 233 235 233 231 221 217 209 226 237 233 236 237 229 208 228 248 214 222 231 232 235 236 239 240 239 235 235 236 235 230 227 220 214 217 226 232 232 235 241 250 253 244 236 234 233 232 231 230 231 231 231 231 229 226 225 225 225 224 222 222 221 213 208 209 215
194 198 201 205 220 223 220 223 226 229 233 234 231 229 228 200 209 236 239 247 199 236 234 214 245 227 221 225 237 227 237 239 240 243 237 232 230 230 225 222 221 219 216 218 222 230 236 238 239 244 247 241 235 233 232 231 229 228 228 228 228 228 225 223 223 223 221 218 216 213 207 204 206 206
195 198 202 205 216 213 212 217 227 236 238 237 233 234 230 221 197 216 243 257 252 185 224 237 232 233 225 219 232 240 236 240 229 228 229 230 228 224 223 212 204 207 216 225 231 238 244 248 246 242 241 239 235 233 232 230 230 229 227 226 225 224 223 222 221 220 218 214 210 209 209 226 222 211
200 200 206 209 211 211 208 210 217 228 233 234 235 233 233 232 216 212 229 258 271 230 217 224 229 219 233 220 218 239 243 239 224 223 222 225 229 228 225 214 214 215 218 226 233 239 245 246 243 242 242 240 236 233 230 229 228 228 228 226 223 220 220 220 219 217 212 208 205 182 197 214 220 211
205 203 207 213 215 209 208 213 219 224 227 229 232 233 231 232 182 142 203 224 254 267 219 215 219 229 189 230 210 233 240 246 239 225 227 223 222 222 221 231 237 237 238 242 247 250 250 251 251 247 240 235 233 234 233 230 230 229 226 222 220 218 218 218 217 212 206 205 193 186 202 212 211 205
221 210 211 217 220 215 214 212 216 221 224 224 225 226 220 221 196 159 174 225 230 258 250 248 239 234 192 232 205 212 231 248 250 244 242 236 227 227 221 223 231 229 235 239 241 243 244 243 241 238 235 233 229 226 223 219 220 225 225 219 217 217 217 216 212 207 204 202 191 186 205 216 207 200
218 215 214 221 220 215 217 218 218 216 220 219 220 221 212 212 201 182 193 208 230 243 258 245 243 228 218 214 234 228 234 243 242 250 252 243 242 232 226 224 227 220 221 225 229 231 233 237 239 241 240 235 227 224 224 223 217 220 222 220 218 218 217 213 207 203 202 199 196 190 195 199 197 193
213 215 217 222 221 216 218 220 219 218 218 218 216 218 214 210 213 196 182 204 219 253 267 267 244 223 209 251 259 254 252 250 258 243 258 254 247 248 238 230 228 211 205 210 217 225 233 238 238 236 231 226 220 219 222 219 215 214 215 214 212 212 210 204 203 201 197 193 194 191 191 191 189 188
217 217 216 217 213 209 217 222 220 218 217 217 213 215 211 205 177 165 175 172 198 221 238 255 252 197 213 226 236 221 238 255 246 245 243 246 244 249 249 243 233 215 197 199 206 216 233 240 237 228 219 218 215 212 212 210 208 210 211 208 203 201 202 202 201 197 191 187 185 196 191 188 185 183
226 220 216 216 205 205 209 217 216 216 217 213 211 210 204 192 175 178 178 180 189 208 230 232 258 228 224 245 242 233 220 241 257 265 258 252 237 238 264 247 228 203 164 163 178 200 209 228 224 216 204 204 203 199 199 202 206 208 207 203 201 200 201 200 196 188 188 188 188 189 181 186 184 180
226 223 216 212 209 206 207 210 209 207 210 209 207 204 201 193 189 185 200 198 201 212 226 236 240 258 242 210 256 238 203 229 226 240 274 277 253 232 227 255 248 196 176 178 177 177 190 196 207 217 207 200 198 197 199 203 205 205 205 205 204 202 199 194 185 187 192 185 178 170 176 179 183 184
225 223 220 215 209 204 201 201 202 200 201 199 203 204 196 192 192 198 204 198 203 213 223 231 239 236 254 247 238 248 205 250 264 222 215 244 245 231 219 217 230 213 173 171 167 170 152 135 89 74 250 206 194 190 193 202 204 208 208 205 202 197 194 187 180 187 184 174 181 173 174 175 183 183
224 221 217 214 210 208 203 199 200 198 195 193 198 198 190 190 192 197 195 198 202 214 216 231 234 241 244 246 252 244 221 222 233 216 197 235 246 242 239 239 208 197 183 181 172 190 164 135 159 191 191 224 183 156 184 197 202 197 191 195 192 189 191 186 181 185 187 180 171 167 186 181 184 187
222 219 215 211 208 206 203 198 200 199 194 192 194 187 189 188 189 192 193 196 204 209 212 222 221 224 236 241 231 233 227 224 234 224 199 227 244 221 249 277 239 193 180 179 203 201 157 155 179 196 221 222 170 157 205 207 191 183 193 194 190 189 190 187 184 187 190 177 161 182 184 182 191 190
221 218 213 210 207 206 202 194 192 191 189 192 195 189 189 188 184 188 194 199 198 203 212 216 215 221 231 235 227 224 229 220 218 220 206 226 219 209 223 245 292 208 178 189 197 209 186 175 197 201 212 194 163 173 211 217 197 173 192 193 178 182 186 188 188 188 179 147 175 184 186 181 187 190
219 213 210 200 196 193 186 179 179 181 185 188 190 187 191 193 191 189 188 190 195 200 206 211 216 215 221 231 208 221 212 227 219 220 213 210 207 221 228 230 229 226 177 174 183 222 190 182 202 212 218 198 175 173 194 211 203 173 195 187 175 179 183 193 186 183 173 173 184 187 183 182 186 189
205 196 183 171 172 167 172 176 173 171 180 190 191 194 193 196 196 202 206 200 195 186 198 210 218 212 216 217 221 209 212 182 210 217 220 211 203 214 222 231 221 269 176 154 176 217 208 179 197 216 219 198 185 155 179 201 215 193 182 193 186 178 180 196 199 185 182 179 185 188 185 183 186 188
187 177 162 161 156 159 172 172 177 182 184 180 193 201 205 204 208 207 208 213 206 196 206 207 214 219 198 208 217 213 178 180 210 201 221 199 203 209 224 202 130 289 181 179 162 207 213 187 194 219 223 177 180 171 171 190 209 208 196 183 183 185 187 191 197 197 193 189 187 190 188 186 187 186
150 158 163 160 156 160 171 179 175 177 183 188 194 200 204 206 201 204 212 207 195 207 219 210 213 206 196 213 209 188 199 211 207 191 199 198 202 199 200 96 148 196 204 154 122 211 221 166 184 224 185 165 179 192 175 179 193 205 206 200 191 187 188 191 195 197 195 192 189 188 189 190 189 185
138 135 137 139 139 154 165 171 169 176 182 189 194 200 205 205 205 206 210 194 196 205 206 202 203 204 186 190 196 185 204 204 115 61 347 285 168 156 179 196 206 171 196 164 158 173 229 147 213 214 169 140 156 183 172 195 190 193 200 202 204 202 204 204 203 200 196 191 188 187 186 187 186 183
106 116 125 123 126 131 152 165 166 171 176 183 186 190 191 190 187 193 192 188 196 198 197 196 191 136 130 168 140 132 230 135 132 136 203 234 174 131 148 234 204 227 189 197 170 108 27 210 199 139 171 189 178 181 202 149 194 195 191 196 201 210 218 220 210 202 196 192 189 186 181 178 181 178
69 112 118 121 108 109 114 171 172 171 160 161 170 162 161 160 153 154 176 183 189 187 177 158 136 119 121 144 175 189 166 144 177 170 204 193 148 175 185 195 206 250 233 208 152 127 176 191 233 114 23 79 55 171 151 119 99 140 163 194 205 212 216 218 214 204 197 194 189 185 178 175 170 162
44 56 48 69 73 74 70 80 90 119 150 154 157 150 140 137 140 154 176 178 169 172 170 146 113 120 146 159 182 194 197 184 177 209 214 57 96 211 205 168 93 268 268 201 162 166 182 168 207 147 128 179 260 208 167 123 125 139 145 156 177 203 211 214 208 201 197 192 189 183 172 166 160 139
37 50 50 44 52 53 50 48 47 40 46 70 55 96 118 125 114 257 134 149 164 160 165 151 141 176 153 157 165 167 179 194 207 203 191 164 170 220 246 211 185 165 217 181 173 174 152 146 182 196 157 145 210 198 137 165 159 169 159 154 170 176 176 173 182 192 187 188 188 173 164 164 167 147
46 45 46 39 46 50 48 48 48 50 48 56 61 58 68 67 113 30 68 18 94 124 131 131 145 152 143 168 189 190 191 188 198 201 201 195 192 205 217 222 216 279 311 215 178 146 157 132 186 199 179 89 135 134 177 162 170 181 187 174 157 145 143 150 151 134 171 186 190 170 168 173 182 172
48 47 49 41 46 50 49 47 47 47 46 46 57 45 42 28 41 74 81 55 60 103 102 123 93 81 88 79 70 103 160 209 183 201 201 204 214 212 218 201 188 230 214 230 164 123 102 136 261 166 156 114 196 124 128 191 184 192 171 189 189 164 150 149 175 151 149 139 147 166 181 187 193 197
48 41 48 44 51 53 51 49 48 47 44 45 32 30 30 25 29 40 18 19 49 41 72 82 91 80 91 97 99 91 43 53 98 100 174 226 217 223 194 127 135 147 236 146 204 159 131 131 201 220 197 170 141 142 157 168 209 156 180 185 187 172 168 173 179 183 167 165 176 160 162 181 201 220
80 76 62 63 63 60 57 54 56 58 54 48 32 28 20 26 23 32 43 26 0 89 94 100 89 81 81 99 80 72 55 342 359 262 113 62 95 119 119 125 103 96 54 145 209 213 156 173 162 164 122 239 189 178 199 266 198 168 181 145 183 183 177 184 188 188 177 165 151 150 157 158 191 188
89 101 98 81 77 71 64 57 46 46 47 47 45 32 13 16 24 14 20 84 145 43 56 85 95 85 80 117 129 284 330 10 29 27 2 341 71 127 141 113 116 125 164 233 199 183 158 152 131 108 79 86 259 234 176 188 181 180 178 149 194 201 180 183 185 185 179 173 179 166 192 188 189 190
119 122 112 100 88 80 74 55 45 31 34 41 30 21 26 5 28 8 4 347 60 93 87 58 56 41 332 340 340 13 30 54 29 22 21 26 24 68 86 13 348 21 194 216 167 175 146 133 147 151 193 203 207 232 220 140 262 246 177 183 181 138 186 183 189 186 177 183 189 193 194 190 194 171
95 89 70 95 102 99 87 73 85 80 45 27 9 19 102 77 299 313 44 330 10 43 58 49 17 344 335 325 29 36 49 54 32 47 78 61 33 92 90 49 358 88 12 318 357 261 173 175 171 156 160 198 222 230 226 184 177 156 190 227 178 194 185 175 185 187 188 185 186 191 181 186 194 191
84 86 96 95 85 95 89 86 59 40 67 310 314 296 290 277 253 265 245 189 93 67 54 27 358 3 16 29 34 54 62 58 33 47 60 53 19 26 114 117 15 31 28 16 39 41 38 239 210 177 193 185 202 223 197 201 203 190 192 198 206 211 133 175 182 197 181 174 178 195 193 186 199 197
55 44 20 18 11 17 8 6 50 156 171 234 238 241 249 253 271 300 321 304 306 76 96 91 19 349 2 39 45 42 49 33 28 15 96 89 81 18 51 101 107 69 63 41 4 1 4 6 15 128 192 217 201 157 131 170 260 246 304 273 232 210 182 191 194 194 163 167 203 201 208 200 203 197
62 11 352 339 337 325 340 321 307 285 231 219 213 212 216 218 224 216 223 239 250 298 82 108 121 17 32 44 46 56 35 8 24 30 86 99 126 107 79 80 63 82 101 91 42 6 358 5 356 11 28 3 186 149 159 181 73 109 179 175 205 233 224 191 189 165 176 191 193 201 209 214 203 204
147 306 307 301 316 304 295 285 276 272 268 255 244 235 203 204 209 208 213 222 193 193 195 213 220 153 143 157 147 153 143 269 306 0 37 82 76 88 98 73 55 60 96 77 42 349 35 25 29 22 2 2 7 352 45 146 165 181 209 236 211 211 195 187 169 169 184 188 171 202 220 216 218 209
280 247 261 285 290 289 283 272 272 266 256 253 239 239 224 223 214 202 215 199 186 202 203 205 215 196 184 187 191 191 195 213 276 11 13 47 66 64 64 88 106 100 116 104 82 2 72 56 66 71 59 17 39 29 340 317 163 152 151 211 230 197 204 188 185 172 175 190 181 193 216 229 242 206
288 295 279 274 276 266 270 274 270 265 254 252 245 228 224 222 219 212 212 168 185 196 216 194 213 219 208 194 186 177 171 167 191 240 290 53 75 92 69 44 76 109 90 35 69 39 81 76 73 97 85 56 68 79 278 312 326 332 136 169 248 176 175 174 159 184 207 186 185 199 218 222 258 208
262 292 293 283 276 271 264 273 287 287 263 236 242 243 225 230 231 222 163 164 193 198 200 209 221 212 220 175 193 214 164 166 149 175 240 150 118 354 176 99 134 139 165 227 128 63 72 94 79 95 108 110 74 9 359 325 359 321 236 169 208 208 135 111 135 204 289 231 213 227 229 246 254 232
235 271 283 289 292 290 291 293 296 282 269 249 218 203 206 222 230 180 165 190 192 193 197 204 213 209 209 198 192 167 160 149 171 193 207 212 196 179 131 149 171 159 85 51 9 23 32 84 108 108 103 97 73 216 191 236 285 268 284 234 180 108 167 148 159 176 182 218 236 194 223 251 289 271
257 247 262 286 297 293 281 278 287 277 275 86 77 176 167 188 206 183 179 178 179 182 186 197 192 186 190 169 167 167 144 154 171 180 188 194 205 192 180 186 173 160 108 121 66 353 342 113 140 171 189 168 230 221 213 219 266 311 342 317 229 183 174 155 181 170 220 221 150 165 265 337 278 302
313 318 307 302 301 302 289 279 264 263 259 207 132 102 122 164 150 180 169 170 165 167 177 179 178 173 167 167 163 153 156 174 176 175 162 170 171 163 164 156 162 168 151 190 216 257 240 193 191 154 133 175 187 85 43 18 349 322 335 320 327 296 268 197 168 155 205 166 135 173 230 271 300 329
325 319 317 325 324 317 311 295 292 286 286 268 142 112 111 118 126 128 128 146 154 161 161 162 176 164 152 147 151 143 141 167 168 167 161 159 158 166 169 159 165 190 160 183 208 217 235 282 15 57 66 70 51 71 71 200 281 308 312 306 328 359 293 271 270 249 173 141 126 134 332 8 37 321
352 336 329 328 328 316 331 336 335 46 120 311 357 52 106 127 133 131 131 151 145 137 148 162 166 166 170 169 173 172 170 182 188 191 196 187 163 166 179 192 186 181 187 201 215 233 278 53 80 74 65 73 106 122 149 203 198 258 318 337 330 330 337 268 261 271 269 239 210 192 177 168 133 263
7 6 359 352 356 5 3 4 11 12 12 16 20 19 27 26 15 23 90 139 125 129 130 122 127 145 172 192 171 171 190 200 198 193 198 192 186 176 173 185 183 178 186 182 207 254 309 352 40 98 106 141 146 108 175 174 9 242 238 262 306 2 341 338 357 1 273 262 260 258 251 222 216 222
15 23 23 20 24 30 31 29 28 23 22 21 22 21 18 20 16 18 17 10 7 86 121 138 159 175 157 154 154 216 244 217 199 218 202 198 193 186 184 179 176 174 185 185 168 218 255 270 32 56 101 166 168 161 184 177 194 214 304 356 334 330 332 335 349 332 331 327 289 237 234 249 253 271